Center for Professional Development & Training
CPDT sessions are restricted to UNF faculty, staff and OPS employees, including student assistants.

Below are current open training sessions. Restricted or full sessions are not listed. Contact training@unf.edu for additional information.

Directions:
Register for classes by checking the appropriate box next to each class and selecting the Enrollment Form button.
For a description of the classes, check the appropriate box next to each class and select the Information button.
Current semester: Spring 2017
Start Date Start Time Stop Time Class Location Trainer Seats Taken /
Capacity
01-24-2017 2:00PM 4:00PM Accepting Credit Card Payments: Payment Card Industry Data Security Standards Compliance (PCI DSS) (PUR-113) 12/4301 Lee, Angela 10 / 12
01-25-2017 10:00AM 12:00PM Originating an ePAF (HR-126) 12/4301 Levine, Stefanie 10 / 12
01-25-2017 10:30AM 12:00PM Information for UNF Search and Screen Committee Members (EOD-121) 58W/3703A Gonzalez, Cheryl 11 / 30
01-25-2017 1:30PM 4:30PM PCard Banner Training (PUR-110) 53/1400 Durden, Denise 7 / 20
01-26-2017 12:00PM 1:00PM Don't Sleep on Sleep (SA-158) 58W/3804 Ballard, Brianna 8 / 20
01-26-2017 2:00PM 4:00PM iContracts (CON-108) 12/4301 Lee, Angela 8 / 12
01-27-2017 9:00AM 12:30PM Safe Space: Cultural Competency in LGBTQ Identities (SA-133) 58W/3806 Kaitlin Legg 9 / 15
02-01-2017 2:30PM 4:00PM Awarding Scholarships for Student Travel (AA-100) 1/1306 Lee, Angela 1 / 12
02-02-2017 2:00PM 4:00PM Using OASys for Recruitment (HR-113) 12/4301 Levine, Stefanie 4 / 12
02-03-2017 9:00AM 4:00PM Excel 2013- Level I Beginner (PDT-309) 53/1400 Leas, Douglas 11 / 20
02-03-2017 10:00AM 11:30AM Healthy Ospreys Move (SA-152) Mind Body Studio-Bui Smith, Kacie 1 / 12
02-07-2017 1:00PM 4:00PM Creating and Managing Online Surveys Level 1 (CIRT-101) 12/4301 Lerman, Justin 5 / 12
02-07-2017 1:30PM 3:30PM Finance Self Service (BGT-100) 53/1400 Lehmann, Joan 7 / 20
02-08-2017 9:00AM 11:00AM CMS Training: Beginner (ITS-118) 53/1400 Thompson, Katherine 3 / 15
02-08-2017 1:00PM 2:30PM Information for UNF Search and Screen Committee Members (EOD-121) 1/1306 Gonzalez, Cheryl 3 / 15
02-08-2017 1:30PM 4:30PM University Domestic Travel Training (CON-106) 53/1400 Lee, Angela 6 / 20
02-09-2017 9:00AM 11:00AM CMS Workshop (ITS-121) 53/1400 Thompson, Katherine 2 / 15
02-09-2017 10:30AM 11:30AM Savvy Social Security Planning (HR-170) 1/1306 Janice Del Toro 7 / 15
02-09-2017 2:00PM 4:30PM University International Travel Training (CON-206) 53/1400 Lee, Angela 5 / 20
02-10-2017 2:00PM 4:30PM CCP in Race & Ethnicity Identity (SA-143) SACR-2100 (58E/2100) Lewin, Cody 5 / 20
02-15-2017 10:00AM 12:00PM Self Service Budget Development (BGT-102) 53/1400 Lehmann, Joan 11 / 24
02-15-2017 10:00AM 11:00AM Evacuation Chair Training (EHS-120) 12/4301 Smith, Brandon J (EHS) 2 / 12
02-15-2017 1:30PM 4:30PM Travel and Expense Training for Delegates (CON-107) 53/1400 Lee, Angela 5 / 20
02-16-2017 1:30PM 4:30PM Direct Pay & Elec. Invoice Approval (CON-102) 12/4301 Lee, Angela 5 / 12
02-17-2017 9:30AM 11:30AM CCP in Military Veteran Identity (SA-144) 58W/3804 Stover, Diane 2 / 20
02-17-2017 1:30PM 3:30PM Self Service Budget Development (BGT-102) 53/1400 Lehmann, Joan 23 / 24
02-21-2017 2:00PM 4:00PM Accepting Credit Card Payments: Payment Card Industry Data Security Standards Compliance (PCI DSS) (PUR-113) 53/1400 Lee, Angela 3 / 20
02-22-2017 9:00AM 11:00AM CMS Training: Beginner (ITS-118) 53/1400 Thompson, Katherine 3 / 15
02-22-2017 10:00AM 12:00PM OnBase Web Client Training (ITS-113) 12/4301 Lee, Angela 1 / 12
02-22-2017 10:30AM 12:00PM Information for UNF Search and Screen Committee Members (EOD-121) 1/1306 Gonzalez, Cheryl 6 / 15
02-22-2017 2:30PM 3:30PM Medicare, Medicaid, and Long-Term Care Planning (HR-171) 1/1306 Janice Del Toro 3 / 15
02-23-2017 9:00AM 11:00AM CMS Web Design Basics (ITS-126) 53/1400 Thompson, Katherine 2 / 15
02-23-2017 1:30PM 4:30PM PCard Banner Training (PUR-110) 12/4301 Durden, Denise 3 / 12
02-23-2017 2:00PM 4:00PM iContracts (CON-108) 53/1400 Lee, Angela 0 / 20
02-24-2017 9:30AM 12:00PM CCP in Worldview Identity (SA-146) SACR-2100 (58E/2100) Trueblood, Tarah 5 / 20
02-28-2017 9:00AM 11:00AM Creating a Requisition (PUR-104) 12/4301 Asmuth, Shawn 3 / 12
03-01-2017 10:00AM 11:30AM HR Policies and Procedures (HR-150) 58W/3806 Catron, Gregory 6 / 35
03-02-2017 1:30PM 3:30PM Finance Self Service (BGT-100) 53/1400 Lehmann, Joan 1 / 20
03-03-2017 9:00AM 4:00PM Excel 2013- Level 2 Intermediate (PDT-311) 53/1400 Leas, Douglas 6 / 20
03-07-2017 1:30PM 4:30PM University Domestic Travel Training (CON-106) 12/4301 Lee, Angela 0 / 12
03-08-2017 9:00AM 11:00AM CMS Training: Beginner (ITS-118) 53/1400 Thompson, Katherine 0 / 15
03-08-2017 10:30AM 11:30AM 6 Retirement Account Options Every Retiree Must Know (HR-173) 1/1306 Janice Del Toro 6 / 15
03-09-2017 9:00AM 11:00AM CMS Workshop (ITS-121) 53/1400 Thompson, Katherine 1 / 15
03-09-2017 1:00PM 2:30PM Search and Screen Training for Committee Liaisons (EOD-142) 58W/3703A Spence, Kameelah 2 / 30
03-09-2017 2:00PM 4:30PM University International Travel Training (CON-206) 12/4301 Lee, Angela 0 / 12
03-13-2017 11:00AM 12:00PM Travel & Expense Training for Travelers and Approvers (CON-104) 12/4301 Lee, Angela 5 / 12
03-14-2017 1:30PM 4:30PM PCard Banner Training (PUR-110) 53/1400 Durden, Denise 0 / 20
03-15-2017 1:30PM 4:30PM Travel and Expense Training for Delegates (CON-107) 12/4301 Lee, Angela 0 / 12
03-16-2017 10:00AM 11:30AM Information for UNF Search and Screen Committee Members (EOD-121) 58W/3804 Gonzalez, Cheryl 2 / 30
03-17-2017 1:30PM 4:30PM Direct Pay & Elec. Invoice Approval (CON-102) 12/4301 Lee, Angela 1 / 12
03-21-2017 10:00AM 12:00PM iContracts (CON-108) 12/4301 Lee, Angela 0 / 12
03-23-2017 10:00AM 12:00PM Accepting Credit Card Payments: Payment Card Industry Data Security Standards Compliance (PCI DSS) (PUR-113) 12/4301 Lee, Angela 0 / 12
03-29-2017 9:00AM 11:00AM CMS Training: Beginner (ITS-118) 53/1400 Thompson, Katherine 0 / 15
03-29-2017 2:00PM 4:00PM Originating an ePAF (HR-126) 12/4301 Levine, Stefanie 3 / 12
03-30-2017 9:00AM 11:00AM CMS Web Design Basics (ITS-126) 53/1400 Thompson, Katherine 1 / 15
03-30-2017 12:00PM 1:00PM Don't Sleep on Sleep (SA-158) SACR-2100 (58E/2100) Ballard, Brianna 3 / 20
03-31-2017 2:00PM 4:30PM CCP in Dis/ability Identity (SA-142) SACR-2100 (58E/2100) Moore, Jake 9 / 20
04-05-2017 9:00AM 11:00AM Finance Self Service (BGT-100) 12/4301 Lehmann, Joan 0 / 12
04-05-2017 10:30AM 11:30AM Basics of Estate Planning (HR-172) 1/1306 Robert Miller 1 / 15
04-06-2017 10:00AM 12:00PM Using OASys for Recruitment (HR-113) 12/4301 Levine, Stefanie 0 / 12
04-06-2017 2:30PM 4:00PM Awarding Scholarships for Student Travel (AA-100) 1/1306 Lee, Angela 0 / 12
04-07-2017 9:30AM 11:30AM CCP in Gender Inclusion (SA-145) SACR-2100 (58E/2100) Winfrey, Brandi 6 / 20
04-07-2017 12:30PM 4:30AM Excel 2013- Level 3 Advanced (PDT-308) 53/1400 Leas, Douglas 5 / 12
04-11-2017 9:00AM 11:00AM Creating a Requisition (PUR-104) 53/1400 Asmuth, Shawn 0 / 20
04-11-2017 1:30PM 4:30PM PCard Banner Training (PUR-110) 12/4301 Durden, Denise 0 / 12
04-12-2017 9:00AM 12:30PM Safe Space: Cultural Competency in LGBTQ Identities (SA-133) 58W/3805 Kaitlin Legg 3 / 15
04-12-2017 9:00AM 11:00AM CMS Training: Beginner (ITS-118) 53/1400 Thompson, Katherine 0 / 15
04-13-2017 9:00AM 11:00AM CMS Workshop (ITS-121) 53/1400 Thompson, Katherine 0 / 15
04-13-2017 1:00PM 2:30PM Information for UNF Search and Screen Committee Members (EOD-121) 1/1306 Gonzalez, Cheryl 1 / 15
04-14-2017 2:00PM 4:00PM Accepting Credit Card Payments: Payment Card Industry Data Security Standards Compliance (PCI DSS) (PUR-113) 53/1400 Lee, Angela 0 / 20
04-26-2017 9:00AM 11:00AM CMS Training: Beginner (ITS-118) 53/1400 Thompson, Katherine 0 / 15
04-26-2017 10:00AM 11:30AM Management Matters (HR-112) 1/1306 Catron, Gregory 3 / 12
04-27-2017 9:00AM 11:00AM CMS Web Design Basics (ITS-126) 53/1400 Thompson, Katherine 0 / 15
05-03-2017 9:00AM 11:00AM Finance Self Service (BGT-100) 53/1400 Lehmann, Joan 0 / 20
05-03-2017 10:30AM 12:00PM Information for UNF Search and Screen Committee Members (EOD-121) 58W/3703A Gonzalez, Cheryl 0 / 30
05-05-2017 1:00PM 3:30PM CCP Capstone in Equity, Diversity, & Inclusion (SA-147) SACR-2100 (58E/2100) Trueblood, Tarah 7 / 20